, AK

(GMT )
Aniak

Weather History for PANI - September, 2013

Change the Weather History Date:

Friday, September 20, 2013

  Actual Average Record
Temperature  
Mean Temperature 35 °F -  
Max Temperature 44 °F 47 °F 59 °F (2010)
Min Temperature 26 °F 34 °F 26 °F (1996)
Degree Days  
Heating Degree Days 30    
Moisture  
Dew Point 23 °F    
Average Humidity 64    
Maximum Humidity 86    
Minimum Humidity 39    
Precipitation  
Precipitation 0.00 in - - ()
Sea Level Pressure  
Sea Level Pressure 29.40 in    
Wind  
Wind Speed 4 mph (East)    
Max Wind Speed 10 mph    
Max Gust Speed -    
Visibility 10 miles    
Events      
Averages and records for this station are not official NWS values.
T = Trace of Precipitation, MM = Missing Value Source: NWS Daily Summary

Daily Weather History Graph

Daily Weather History Graph

Search for Another Location

Airport or City:

Trip Planner

Search our weather history database for the weather conditions in past years. The results will help you decide how hot, cold, wet, or windy it might be!

Date:

Astronomy

Sep. 20, 2013 Rise Set
Actual Time 8:18 AM AKDT 8:43 PM AKDT
Civil Twilight 7:34 AM AKDT 9:26 PM AKDT
Nautical Twilight 6:40 AM AKDT 10:20 PM AKDT
Astronomical Twilight 5:40 AM AKDT 11:19 PM AKDT
Moon 8:39 PM AKDT (9/20) 10:23 AM AKDT (9/20)
Length of Visible Light 13h 52m
Length of Day
12h 24m
Full, 98% of the Moon is Illuminated
Sep 20
Full
Sep 26
Last Quarter
Oct 4
New
Oct 11
First Quarter
Oct 18
Full

Hourly Weather History & Observations

Time (AKDT) Temp. Windchill Dew Point Humidity Pressure Visibility Wind Dir Wind Speed Gust Speed Precip Events Conditions
12:16 AM 28.4 °F - 24.8 °F 86% 29.68 in 10.0 mi Calm Calm - N/A   Partly Cloudy
12:36 AM 28.4 °F - 24.8 °F 86% 29.68 in 10.0 mi Calm Calm - N/A   Mostly Cloudy
12:56 AM 28.4 °F - 24.8 °F 86% 29.68 in 10.0 mi Calm Calm - N/A   Overcast
1:16 AM 28.4 °F - 24.8 °F 86% 29.68 in 10.0 mi Calm Calm - N/A   Overcast
1:36 AM 28.4 °F - 24.8 °F 86% 29.67 in 10.0 mi Calm Calm - N/A   Overcast
1:56 AM 28.4 °F - 24.8 °F 86% 29.67 in 10.0 mi Calm Calm - N/A   Partly Cloudy
2:16 AM 28.4 °F - 24.8 °F 86% 29.66 in 10.0 mi Calm Calm - N/A   Scattered Clouds
2:36 AM 28.4 °F 24.6 °F 24.8 °F 86% 29.66 in 10.0 mi ESE 3.5 mph - N/A   Mostly Cloudy
2:56 AM 28.4 °F 23.3 °F 24.8 °F 86% 29.65 in 10.0 mi ESE 4.6 mph - N/A   Overcast
3:16 AM 30.2 °F 26.7 °F 24.8 °F 80% 29.65 in 10.0 mi ESE 3.5 mph - N/A   Overcast
3:36 AM 30.2 °F 26.7 °F 24.8 °F 80% 29.64 in 10.0 mi SE 3.5 mph - N/A   Overcast
3:56 AM 28.4 °F - 23.0 °F 80% 29.63 in 10.0 mi Calm Calm - N/A   Overcast
4:16 AM 28.4 °F 24.6 °F 24.8 °F 86% 29.62 in 10.0 mi ESE 3.5 mph - N/A   Overcast
4:36 AM 28.4 °F 23.3 °F 23.0 °F 80% 29.62 in 10.0 mi ESE 4.6 mph - N/A   Overcast
4:56 AM 28.4 °F 22.2 °F 23.0 °F 80% 29.61 in 10.0 mi ESE 5.8 mph - N/A   Overcast
5:16 AM 28.4 °F 22.2 °F 23.0 °F 80% 29.60 in 10.0 mi ESE 5.8 mph - N/A   Overcast
5:36 AM 28.4 °F - 23.0 °F 80% 29.60 in 10.0 mi Calm Calm - N/A   Overcast
5:56 AM 28.4 °F 24.6 °F 23.0 °F 80% 29.59 in 10.0 mi ESE 3.5 mph - N/A   Overcast
6:16 AM 28.4 °F 24.6 °F 21.2 °F 74% 29.59 in 10.0 mi East 3.5 mph - N/A   Overcast
6:36 AM 28.4 °F 23.3 °F 21.2 °F 74% 29.58 in 10.0 mi ESE 4.6 mph - N/A   Overcast
6:56 AM 28.4 °F - 21.2 °F 74% 29.57 in 10.0 mi Calm Calm - N/A   Overcast
7:16 AM 28.4 °F 22.2 °F 23.0 °F 80% 29.57 in 10.0 mi ESE 5.8 mph - N/A   Overcast
7:36 AM 28.4 °F 22.2 °F 23.0 °F 80% 29.55 in 10.0 mi ESE 5.8 mph - N/A   Overcast
7:56 AM 28.4 °F 22.2 °F 23.0 °F 80% 29.55 in 10.0 mi ESE 5.8 mph - N/A   Overcast
8:16 AM 28.4 °F 23.3 °F 24.8 °F 86% 29.54 in 10.0 mi ESE 4.6 mph - N/A   Overcast
8:36 AM 28.4 °F 20.4 °F 23.0 °F 80% 29.53 in 10.0 mi ESE 8.1 mph - N/A   Overcast
8:56 AM 28.4 °F 20.4 °F 23.0 °F 80% 29.53 in 10.0 mi ESE 8.1 mph - N/A   Overcast
9:16 AM 28.4 °F 21.2 °F 23.0 °F 80% 29.52 in 10.0 mi ESE 6.9 mph - N/A   Overcast
9:36 AM 30.2 °F 23.4 °F 24.8 °F 80% 29.50 in 10.0 mi East 6.9 mph - N/A   Overcast
9:56 AM 30.2 °F 24.3 °F 24.8 °F 80% 29.49 in 10.0 mi ESE 5.8 mph - N/A   Mostly Cloudy
10:16 AM 30.2 °F 25.4 °F 24.8 °F 80% 29.48 in 10.0 mi SE 4.6 mph - N/A   Mostly Cloudy
10:36 AM 32.0 °F 27.5 °F 24.8 °F 75% 29.47 in 10.0 mi ESE 4.6 mph - N/A   Overcast
10:56 AM 33.8 °F 27.7 °F 24.8 °F 70% 29.47 in 10.0 mi ESE 6.9 mph - N/A   Overcast
11:16 AM 33.8 °F 27.7 °F 24.8 °F 70% 29.46 in 10.0 mi ESE 6.9 mph - N/A   Overcast
11:36 AM 35.6 °F 29.9 °F 24.8 °F 65% 29.44 in 10.0 mi East 6.9 mph - N/A   Overcast
11:56 AM 35.6 °F 29.2 °F 24.8 °F 65% 29.43 in 10.0 mi East 8.1 mph - N/A   Overcast
12:16 PM 37.4 °F 32.8 °F 24.8 °F 60% 29.42 in 10.0 mi ESE 5.8 mph - N/A   Overcast
12:36 PM 39.2 °F 35.0 °F 23.0 °F 52% 29.40 in 10.0 mi ESE 5.8 mph - N/A   Overcast
12:56 PM 39.2 °F 34.2 °F 23.0 °F 52% 29.39 in 10.0 mi ESE 6.9 mph - N/A   Overcast
1:16 PM 41.0 °F 36.4 °F 21.2 °F 45% 29.38 in 10.0 mi ESE 6.9 mph - N/A   Mostly Cloudy
1:36 PM 41.0 °F 36.4 °F 21.2 °F 45% 29.36 in 10.0 mi SE 6.9 mph - N/A   Overcast
1:56 PM 42.8 °F 38.0 °F 23.0 °F 46% 29.35 in 10.0 mi ESE 8.1 mph - N/A   Mostly Cloudy
2:16 PM 42.8 °F 38.0 °F 24.8 °F 49% 29.33 in 10.0 mi East 8.1 mph - N/A   Partly Cloudy
2:36 PM 42.8 °F 38.6 °F 24.8 °F 49% 29.32 in 10.0 mi East 6.9 mph - N/A   Clear
2:56 PM 42.8 °F 38.0 °F 24.8 °F 49% 29.30 in 10.0 mi East 8.1 mph - N/A   Clear
3:16 PM 44.6 °F 40.7 °F 23.0 °F 43% 29.29 in 10.0 mi East 6.9 mph - N/A   Clear
3:36 PM 42.8 °F 37.0 °F 23.0 °F 46% 29.27 in 10.0 mi ENE 10.4 mph - N/A   Clear
3:56 PM 44.6 °F 39.7 °F 24.8 °F 46% 29.26 in 10.0 mi East 9.2 mph - N/A   Clear
4:16 PM 44.6 °F 39.7 °F 23.0 °F 43% 29.24 in 10.0 mi ESE 9.2 mph - N/A   Clear
4:36 PM 44.6 °F 40.2 °F 23.0 °F 43% 29.23 in 10.0 mi East 8.1 mph - N/A   Clear
4:56 PM 44.6 °F 39.7 °F 21.2 °F 39% 29.22 in 10.0 mi East 9.2 mph - N/A   Clear
5:16 PM 44.6 °F 39.2 °F 21.2 °F 39% 29.21 in 10.0 mi ESE 10.4 mph - N/A   Clear
5:36 PM 44.6 °F 39.7 °F 21.2 °F 39% 29.20 in 10.0 mi ESE 9.2 mph - N/A   Clear
5:56 PM 44.6 °F 40.2 °F 21.2 °F 39% 29.19 in 10.0 mi ESE 8.1 mph - N/A   Clear
6:16 PM 44.6 °F 39.7 °F 21.2 °F 39% 29.19 in 10.0 mi East 9.2 mph - N/A   Clear
6:36 PM 44.6 °F 39.2 °F 21.2 °F 39% 29.17 in 10.0 mi East 10.4 mph - N/A   Clear
6:56 PM 44.6 °F 40.7 °F 21.2 °F 39% 29.17 in 10.0 mi East 6.9 mph - N/A   Clear
7:16 PM 44.6 °F 40.2 °F 21.2 °F 39% 29.16 in 10.0 mi East 8.1 mph - N/A   Clear
7:36 PM 44.6 °F 41.4 °F 21.2 °F 39% 29.16 in 10.0 mi East 5.8 mph - N/A   Clear
7:56 PM 42.8 °F 41.1 °F 23.0 °F 46% 29.15 in 10.0 mi East 3.5 mph - N/A   Clear
8:16 PM 42.8 °F 40.1 °F 21.2 °F 42% 29.15 in 10.0 mi ENE 4.6 mph - N/A   Clear
8:36 PM 42.8 °F - 21.2 °F 42% 29.15 in 10.0 mi Calm Calm - N/A   Clear
8:56 PM 41.0 °F - 21.2 °F 45% 29.15 in 10.0 mi Calm Calm - N/A   Clear
9:16 PM 39.2 °F 35.0 °F 21.2 °F 49% 29.14 in 10.0 mi NNE 5.8 mph - N/A   Clear
9:36 PM 39.2 °F 37.0 °F 21.2 °F 49% 29.14 in 10.0 mi NNE 3.5 mph - N/A   Clear
9:56 PM 37.4 °F 33.8 °F 21.2 °F 52% 29.14 in 10.0 mi NNE 4.6 mph - N/A   Clear
10:16 PM 37.4 °F 32.1 °F 21.2 °F 52% 29.14 in 10.0 mi NNE 6.9 mph - N/A   Clear
10:36 PM 35.6 °F 29.9 °F 21.2 °F 56% 29.14 in 10.0 mi NNE 6.9 mph - N/A   Clear
10:56 PM 35.6 °F 30.7 °F 21.2 °F 56% 29.13 in 10.0 mi NNE 5.8 mph - N/A   Clear
11:16 PM 35.6 °F 29.2 °F 21.2 °F 56% 29.13 in 10.0 mi NNE 8.1 mph - N/A   Clear
11:36 PM 33.8 °F 28.6 °F 21.2 °F 60% 29.14 in 10.0 mi NNE 5.8 mph - N/A   Clear
11:56 PM 33.8 °F 27.7 °F 21.2 °F 60% 29.14 in 10.0 mi NNE 6.9 mph - N/A   Clear